Regional Weather Roundup
Issued by NWS Mobile, AL

Home | Current Version | Previous Version | Text Only | Print | Product List | Glossary On
Versions: 1 2 3 4 5 6 7 8 9 10 11 12 13 14 15 16 17 18 19 20 21 22 23 24 25 26 27 28 29 30 31 32 33 34 35 36 37 38 39 40 41 42 43 44 45 46 47 48 49 50
000
ASUS44 KMOB 172110
RWRMOB
REGIONAL WEATHER ROUNDUP
NATIONAL WEATHER SERVICE MOBILE AL
300 PM CST WED DEC 17 2014

NOTE: "FAIR" INDICATES FEW OR NO CLOUDS BELOW 12,000 FEET WITH NO
      SIGNIFICANT WEATHER AND/OR OBSTRUCTIONS TO VISIBILITY.

  * THESE STATIONS ARE PART OF THE UNIVERSITY OF SOUTH ALABAMA
    MESONET AND ARE NOT UNDER NWS OR FAA QUALITY CONTROL.

ALZ061>064-172200-
COASTAL ALABAMA

CITY           SKY/WX    TMP DP  RH WIND       PRES   REMARKS
MOBILE REG APT CLOUDY    59  40  49 NW6       30.18F
BROOKLEY FIELD CLOUDY    61  40  45 NW6       30.19S
USA CAMPUS*      N/A     59  39  47 NE3       30.18F
DOG RIVER*     NOT AVBL


CITY           SKY/WX    TMP DP  RH WIND       PRES   REMARKS
MOUNT VERNON*    N/A     57  41  54 NW2       30.19S
SARALAND*      NOT AVBL
BAY MINETTE*   NOT AVBL
LOXLEY*          N/A     57  43  58 NW7       30.18S
ROBERTSDALE*     N/A     59  41  51 CALM      30.17S
FAIRHOPE*        N/A     55  41  58 NW8       30.17S
ELBERTA*         N/A     59  39  47 N6        30.17S
FOLEY*           N/A     57  41  54 NW5       30.14F
GRAND BAY*       N/A     59  39  47 CALM      30.17S
DAUPHIN ISLND* NOT AVBL
BON SCOUR NWR* NOT AVBL
GULF SHORES    CLOUDY    57  44  62 W7        30.18R

$$

ALZ051>060-172200-
INTERIOR SOUTHWEST AND SOUTH CENTRAL ALABAMA

CITY           SKY/WX    TMP DP  RH WIND       PRES   REMARKS
GREENVILLE     PTSUNNY   58  38  47 W6        30.15S
EVERGREEN      PTSUNNY   58  41  53 VRB3      30.17F
CASTLEBERRY*   NOT AVBL
ATMORE*          N/A     55  41  58 NW6       30.18F
DIXIE*           N/A     57  43  58 CALM      30.14F
ANDALUSIA/OPP  PTSUNNY   62  40  44 N6        30.15F
ANDALUSIA*       N/A     57  43  58 CALM      30.15F
FLORALA APT    PTSUNNY   59  41  51 CALM      30.17F
FLORALA*         N/A     57  41  54 NW5       30.14F

$$

FLZ001>006-172200-
WESTERN FLORIDA PANHANDLE

CITY           SKY/WX    TMP DP  RH WIND       PRES   REMARKS
PENSACOLA      CLOUDY    59  38  45 NW7       30.15F
NAS PENSACOLA  CLOUDY    57  41  55 S6        30.16F
MILTON         CLOUDY    58  39  49 N6        30.17S
WHTNG S FIELD  CLOUDY    61  40  45 N9        30.17S


CITY           SKY/WX    TMP DP  RH WIND       PRES   REMARKS
WALNUT HILL*   NOT AVBL
JAY*             N/A     57  39  51 NW5       30.17F
DUKE FIELD     PTSUNNY   59  40  50 NW5       30.15F
CRESTVIEW      PTSUNNY   59  41  51 CALM      30.17F
VALPARAISO     PTSUNNY   57  44  60 SW7       30.15F
DESTIN         MOSUNNY   58  44  60 VRB5      30.16F

$$

MSZ076-079-172200-
INTERIOR SOUTHEAST MISSISSIPPI

CITY           SKY/WX    TMP DP  RH WIND       PRES   REMARKS
LEAKESVILLE*   NOT AVBL
AGRICOLA*      NOT AVBL

$$

MARINE OBSERVATIONS

STATION/POSITION TIME  TEMP    WIND        PRES    WAVE
                       AIR SEA DIR/SP/G            HT/PER
                 (UTC) (F)     (DEG/KT/KT) (MB)    (FT/S)
PASCAGOULA       2100   59     310/  5/  7 1021.9R
PETIT BOIS ISLND 2100   56     230/  2/  3 1022.5R
GRAND BAY        2000   55     160/  5     1023.0S
KATRINA CUT      2000   54     100/  2     1023.0S
CEDAR POINT      2000   53      50/  3     1022.4S
E DAUPHIN ISLAND 2100   55      20/  4/  5 1021.7F
MIDDLE BAY LIGHT 2000   56      20/  9     1022.0S
USCG MOBILE BAY  2100   58 60  360/  5/  6 1020.7F
STATE DOCKS      2100   59 61              1021.6R
MEAHER PARK      2000   58     360/  4     1022.4S
WEEKS BAY        2000   58                   N/A
FORT MORGAN      2100   56      40/  7/  8 1021.5F
12 S ORANGE BCH  2100   57 65  320/  4/  4 1021.4F   1/ 4
PENSACOLA BAY    2100   58 58  190/  2/  4 1021.8R
64 S DAUPHIN ISL 2100   61 74   20/  8/ 12 1020.9F   2/ 5
67 S FORT MORGAN 2000   63      20/  6     1021.3S

$$

SELECTED LOCATIONS ACROSS THE REGION

CITY           SKY/WX    TMP DP  RH WIND       PRES   REMARKS
NEW ORLEANS    PTSUNNY   57  41  55 NE5       30.20F
GULFPORT       PTSUNNY   60  39  45 W6        30.20R
PASCAGOULA AP  PTSUNNY   60  38  43 N5        30.19S
PASCAGOULA*      N/A     59  41  51 W3        30.19S
HATTIESBURG    MOSUNNY   58  39  49 N7        30.21S
LAUREL         MOSUNNY   57  37  47 CALM      30.22R
MERIDIAN       PTSUNNY   55  37  50 NW5       30.21R
JACKSON        PTSUNNY   56  36  47 NE3       30.22F
MONTGOMERY     MOSUNNY   57  37  47 NW9       30.17S
TROY           PTSUNNY   59  39  47 W7        30.15F
KINSTON*       NOT AVBL
GENEVA*          N/A     59  43  55 NW3       30.17F
ASHFORD*         N/A     57  43  58 CALM      30.15F
DOTHAN         CLOUDY    60  40  47 W7        30.16F
PANAMA CITY    PTSUNNY   59  44  57 S7        30.14F

$$



USA.gov is the U.S. government's official web portal to all federal, state and local government web resources and services.